Location: Buenos Aires
(34.6076°S, 58.4371°W)
Time: 13:11:57
(UTC-03:00)

Hubble Space Telescope - Visible Passes

Search period start: 22 June 2021 00:00
Search period end: 02 July 2021 00:00
Orbit: 535 x 539 km, 28.5° (Epoch: 21 June)

Date Brightness Start Highest point End Pass type
(mag) Time Alt. Az. Time Alt. Az. Time Alt. Az.
22 Jun 3.2 06:10:23 12° NNW 06:10:23 12° NNW 06:12:02 10° N visible
29 Jun 3.5 20:16:07 10° NNW 20:16:24 11° NNW 20:16:24 11° NNW visible
30 Jun 3.1 20:04:38 10° NNW 20:06:09 16° N 20:06:09 16° N visible
01 Jul 2.7 19:53:17 10° NNW 19:55:52 20° N 19:55:52 20° N visible
